When you browse on this site, cookies collect data to enhance your experience and personalize the content and advertising you see.
Visit our Privacy Policy to learn more. By continuing to use the site, you agree to this use of cookies and data.
EN

Hourly Weather Artashat

Today, 14 July, Tuesday

Time Temperature Precipitation Wind Pressure Humidity
00:00 +15°C° 0 mm 1 mps 599 mmHg 73%
01:00 +15°C° 0 mm 1 mps 599 mmHg 74%
02:00 +14°C° 0 mm 1 mps 599 mmHg 74%
03:00 +13°C° 0 mm 0 mps 599 mmHg 73%
04:00 +14°C° 0 mm 1 mps 599 mmHg 72%
05:00 +15°C° 0 mm 1 mps 600 mmHg 70%
06:00 +15°C° 0 mm 1 mps 600 mmHg 69%
07:00 +16°C° 0 mm 1 mps 600 mmHg 64%
08:00 +18°C° 0 mm 1 mps 601 mmHg 59%
09:00 +19°C° 0 mm 2 mps 601 mmHg 55%
10:00 +20°C° 0.2 mm 2 mps 602 mmHg 52%
11:00 +21°C° 0.2 mm 2 mps 602 mmHg 49%
12:00 +23°C° 0.2 mm 2 mps 602 mmHg 47%
13:00 +23°C° 0.3 mm 2 mps 602 mmHg 45%
14:00 +24°C° 0.3 mm 2 mps 602 mmHg 43%
15:00 +24°C° 0.3 mm 2 mps 602 mmHg 42%
16:00 +24°C° 0.4 mm 2 mps 602 mmHg 43%
17:00 +23°C° 0.4 mm 2 mps 602 mmHg 45%
18:00 +23°C° 0.4 mm 2 mps 602 mmHg 47%
19:00 +21°C° 0.4 mm 2 mps 602 mmHg 52%
20:00 +20°C° 0.4 mm 1 mps 602 mmHg 58%
21:00 +19°C° 0.4 mm 1 mps 602 mmHg 63%
22:00 +19°C° 0.3 mm 1 mps 602 mmHg 64%
23:00 +18°C° 0.3 mm 1 mps 602 mmHg 65%

Tomorrow, 15 July, Wednesday

Time Temperature Precipitation Wind Pressure Humidity
00:00 +18°C° 0.3 mm 1 mps 602 mmHg 66%
01:00 +16°C° 0.3 mm 1 mps 602 mmHg 68%
02:00 +16°C° 0.3 mm 1 mps 602 mmHg 70%
03:00 +15°C° 0.3 mm 1 mps 602 mmHg 73%
04:00 +16°C° 0.2 mm 1 mps 602 mmHg 72%
05:00 +15°C° 0.2 mm 0 mps 602 mmHg 71%
06:00 +15°C° 0.2 mm 0 mps 603 mmHg 71%
07:00 +18°C° 0.1 mm 1 mps 603 mmHg 66%
08:00 +19°C° 0.1 mm 1 mps 603 mmHg 61%
09:00 +21°C° 0.1 mm 1 mps 604 mmHg 55%
10:00 +22°C° 0.2 mm 1 mps 604 mmHg 52%
11:00 +23°C° 0.2 mm 2 mps 604 mmHg 48%
12:00 +24°C° 0.2 mm 2 mps 604 mmHg 44%
13:00 +24°C° 0.1 mm 2 mps 604 mmHg 43%
14:00 +25°C° 0.1 mm 2 mps 604 mmHg 41%
15:00 +25°C° 0.1 mm 2 mps 604 mmHg 39%
16:00 +25°C° 0.1 mm 2 mps 604 mmHg 40%
17:00 +25°C° 0.1 mm 2 mps 604 mmHg 41%
18:00 +25°C° 0.1 mm 2 mps 604 mmHg 42%
19:00 +23°C° 0.1 mm 2 mps 604 mmHg 47%
20:00 +22°C° 0.1 mm 1 mps 603 mmHg 52%
21:00 +21°C° 0.1 mm 1 mps 603 mmHg 57%
22:00 +20°C° 0 mm 1 mps 603 mmHg 58%
23:00 +20°C° 0 mm 1 mps 603 mmHg 59%

Day after tomorrow, 16 July, Thursday

Time Temperature Precipitation Wind Pressure Humidity
00:00 +17°C° 0 mm 0 mps 603 mmHg 61%
01:00 +18°C° 0.1 mm 1 mps 602 mmHg 63%
02:00 +18°C° 0.1 mm 1 mps 602 mmHg 65%
03:00 +16°C° 0.1 mm 1 mps 602 mmHg 67%
04:00 +18°C° 0.1 mm 1 mps 602 mmHg 67%
05:00 +16°C° 0.1 mm 0 mps 602 mmHg 68%
06:00 +16°C° 0.1 mm 0 mps 602 mmHg 68%
07:00 +19°C° 0.2 mm 1 mps 603 mmHg 64%
08:00 +20°C° 0.2 mm 1 mps 603 mmHg 59%
09:00 +20°C° 0.2 mm 2 mps 603 mmHg 55%
10:00 +21°C° 0.2 mm 2 mps 603 mmHg 51%
11:00 +22°C° 0.2 mm 3 mps 603 mmHg 48%
12:00 +25°C° 0.2 mm 3 mps 603 mmHg 44%
13:00 +25°C° 0 mm 3 mps 603 mmHg 42%
14:00 +26°C° 0 mm 3 mps 603 mmHg 40%
15:00 +26°C° 0 mm 3 mps 603 mmHg 38%
16:00 +26°C° 0.1 mm 3 mps 603 mmHg 39%
17:00 +26°C° 0.1 mm 3 mps 603 mmHg 39%
18:00 +25°C° 0.1 mm 2 mps 602 mmHg 39%
19:00 +24°C° 0.1 mm 2 mps 602 mmHg 43%
20:00 +23°C° 0.1 mm 2 mps 602 mmHg 47%
21:00 +21°C° 0.1 mm 2 mps 602 mmHg 51%
22:00 +20°C° 0 mm 2 mps 602 mmHg 54%
23:00 +19°C° 0 mm 2 mps 601 mmHg 57%

17 July, Friday

Time Temperature Precipitation Wind Pressure Humidity
00:00 +19°C° 0 mm 1 mps 601 mmHg 61%
01:00 +19°C° 0 mm 1 mps 601 mmHg 62%
02:00 +18°C° 0 mm 1 mps 601 mmHg 63%
03:00 +18°C° 0 mm 1 mps 600 mmHg 65%
04:00 +18°C° 0.1 mm 1 mps 600 mmHg 65%
05:00 +18°C° 0.1 mm 1 mps 601 mmHg 65%
06:00 +18°C° 0.1 mm 1 mps 601 mmHg 65%
07:00 +19°C° 0.1 mm 2 mps 601 mmHg 61%
08:00 +20°C° 0.1 mm 2 mps 602 mmHg 56%
09:00 +21°C° 0.1 mm 3 mps 602 mmHg 51%
10:00 +22°C° 0.1 mm 3 mps 602 mmHg 48%
11:00 +25°C° 0.1 mm 3 mps 602 mmHg 44%
12:00 +26°C° 0.1 mm 3 mps 603 mmHg 41%
13:00 +27°C° 0.1 mm 3 mps 603 mmHg 38%
14:00 +27°C° 0.1 mm 3 mps 603 mmHg 35%
15:00 +28°C° 0.1 mm 3 mps 603 mmHg 33%
16:00 +28°C° 0 mm 3 mps 603 mmHg 33%
17:00 +28°C° 0 mm 3 mps 603 mmHg 34%
18:00 +28°C° 0 mm 3 mps 603 mmHg 34%
19:00 +26°C° 0 mm 3 mps 602 mmHg 40%
20:00 +24°C° 0 mm 3 mps 602 mmHg 46%
21:00 +21°C° 0 mm 2 mps 601 mmHg 52%
22:00 +20°C° 0 mm 2 mps 601 mmHg 56%
23:00 +20°C° 0 mm 1 mps 601 mmHg 59%

18 July, Saturday

Time Temperature Precipitation Wind Pressure Humidity
00:00 +19°C° 0 mm 1 mps 601 mmHg 63%
01:00 +19°C° 0 mm 1 mps 601 mmHg 65%
02:00 +16°C° 0 mm 0 mps 601 mmHg 67%
03:00 +16°C° 0 mm 0 mps 601 mmHg 69%
04:00 +16°C° 0 mm 0 mps 601 mmHg 68%
05:00 +17°C° 0 mm 0 mps 602 mmHg 67%
06:00 +17°C° 0 mm 0 mps 602 mmHg 66%
07:00 +21°C° 0 mm 1 mps 602 mmHg 60%
08:00 +22°C° 0 mm 1 mps 603 mmHg 55%
09:00 +23°C° 0 mm 1 mps 603 mmHg 49%
10:00 +25°C° 0 mm 2 mps 604 mmHg 45%
11:00 +26°C° 0 mm 2 mps 604 mmHg 41%
12:00 +27°C° 0 mm 2 mps 604 mmHg 37%
13:00 +28°C° 0 mm 3 mps 604 mmHg 36%
14:00 +28°C° 0 mm 3 mps 604 mmHg 34%
15:00 +29°C° 0 mm 4 mps 604 mmHg 33%
16:00 +29°C° 0 mm 3 mps 604 mmHg 33%
17:00 +29°C° 0 mm 3 mps 604 mmHg 33%
18:00 +28°C° 0 mm 2 mps 604 mmHg 34%
19:00 +27°C° 0 mm 1 mps 604 mmHg 39%
20:00 +25°C° 0 mm 1 mps 604 mmHg 44%
21:00 +21°C° 0 mm 0 mps 604 mmHg 49%
22:00 +21°C° 0 mm 0 mps 604 mmHg 50%
23:00 +20°C° 0 mm 0 mps 604 mmHg 51%

19 July, Sunday

Time Temperature Precipitation Wind Pressure Humidity
00:00 +20°C° 0 mm 0 mps 604 mmHg 51%
01:00 +19°C° 0 mm 0 mps 603 mmHg 54%
02:00 +18°C° 0 mm 0 mps 603 mmHg 56%
03:00 +18°C° 0 mm 0 mps 603 mmHg 59%
04:00 +18°C° 0 mm 0 mps 603 mmHg 60%
05:00 +18°C° 0 mm 0 mps 604 mmHg 61%
06:00 +19°C° 0 mm 0 mps 604 mmHg 62%
07:00 +22°C° 0 mm 1 mps 604 mmHg 56%
08:00 +23°C° 0 mm 1 mps 605 mmHg 51%
09:00 +25°C° 0 mm 1 mps 605 mmHg 46%
10:00 +26°C° 0 mm 2 mps 605 mmHg 42%
11:00 +27°C° 0 mm 2 mps 606 mmHg 39%
12:00 +28°C° 0 mm 2 mps 606 mmHg 36%
13:00 +29°C° 0 mm 3 mps 606 mmHg 34%
14:00 +30°C° 0 mm 3 mps 606 mmHg 33%
15:00 +30°C° 0 mm 3 mps 606 mmHg 31%
16:00 +30°C° 0 mm 3 mps 605 mmHg 32%
17:00 +30°C° 0 mm 2 mps 605 mmHg 32%
18:00 +29°C° 0 mm 2 mps 605 mmHg 33%
19:00 +28°C° 0 mm 1 mps 604 mmHg 37%
20:00 +26°C° 0 mm 1 mps 604 mmHg 42%
21:00 +24°C° 0 mm 1 mps 604 mmHg 47%
22:00 +24°C° 0 mm 1 mps 603 mmHg 49%
23:00 +21°C° 0 mm 0 mps 603 mmHg 52%
Show more